UAL2859 KDEN-KEGE

Flight info

Callsign UAL2859
Flight time 0h 25m
Altitude 22000
Route ZIMMR4 ZIMMR CULCH
Aircraft B738/M-SDE2E3FGHIRWXY/LB1

Departure

Time 2026-05-06 23:54
Airport Denver International Airport (KDEN)

Arrival

Time 2026-05-07 00:19
Airport Eagle County Regional Airport (KEGE)
Time Latitude Longitude Altitude Speed Heading
2026-05-06 23:25 39.85938 -104.67902 5379 ft 0 kts 180°
2026-05-06 23:43 39.85950 -104.67902 5379 ft 2 kts 179°
2026-05-06 23:44 39.85965 -104.67902 5379 ft 2 kts 180°
2026-05-06 23:44 39.85980 -104.67902 5379 ft 2 kts 180°
2026-05-06 23:44 39.85995 -104.67902 5379 ft 2 kts 180°
2026-05-06 23:44 39.86010 -104.67902 5379 ft 2 kts 180°
2026-05-06 23:45 39.86013 -104.67902 5378 ft 0 kts 179°
2026-05-06 23:48 39.86012 -104.67903 5378 ft 1 kts 198°
2026-05-06 23:48 39.86021 -104.67974 5378 ft 16 kts 284°
2026-05-06 23:48 39.86019 -104.68168 5377 ft 22 kts 275°
2026-05-06 23:48 39.86017 -104.68366 5372 ft 18 kts 237°
2026-05-06 23:49 39.85926 -104.68396 5372 ft 13 kts 178°
2026-05-06 23:49 39.85809 -104.68397 5372 ft 20 kts 180°
2026-05-06 23:49 39.85660 -104.68399 5372 ft 20 kts 181°
2026-05-06 23:49 39.85521 -104.68401 5372 ft 19 kts 179°
2026-05-06 23:50 39.85374 -104.68401 5372 ft 22 kts 181°
2026-05-06 23:50 39.85204 -104.68636 5369 ft 23 kts 268°
2026-05-06 23:50 39.85200 -104.68862 5355 ft 27 kts 269°
2026-05-06 23:51 39.85195 -104.69102 5349 ft 26 kts 270°
2026-05-06 23:51 39.85200 -104.69344 5336 ft 20 kts 272°
2026-05-06 23:51 39.85201 -104.69491 5336 ft 11 kts 271°
2026-05-06 23:51 39.85201 -104.69497 5336 ft 0 kts 271°
2026-05-06 23:52 39.85201 -104.69498 5336 ft 0 kts 271°
2026-05-06 23:52 39.85201 -104.69514 5336 ft 5 kts 271°
2026-05-06 23:52 39.85203 -104.69575 5336 ft 6 kts 272°
2026-05-06 23:52 39.85216 -104.69633 5336 ft 10 kts 307°
2026-05-06 23:53 39.85313 -104.69658 5336 ft 17 kts
2026-05-06 23:53 39.85602 -104.69655 5333 ft 74 kts 360°
2026-05-06 23:53 39.86330 -104.69650 5330 ft 134 kts
2026-05-06 23:53 39.87447 -104.69638 5392 ft 178 kts 360°
2026-05-06 23:54 39.88685 -104.69625 6024 ft 180 kts 360°
2026-05-06 23:54 39.89934 -104.69630 6705 ft 182 kts 358°
2026-05-06 23:54 39.91202 -104.69843 7179 ft 191 kts 341°
2026-05-06 23:54 39.92333 -104.70807 7520 ft 205 kts 310°
2026-05-06 23:55 39.93030 -104.72495 7830 ft 225 kts 286°
2026-05-06 23:55 39.93201 -104.74583 8270 ft 241 kts 269°
2026-05-06 23:55 39.93150 -104.76794 8802 ft 253 kts 270°
2026-05-06 23:55 39.93154 -104.79134 9309 ft 265 kts 272°
2026-05-06 23:56 39.93183 -104.81580 9822 ft 277 kts 273°
2026-05-06 23:56 39.93207 -104.84122 9968 ft 280 kts 272°
2026-05-06 23:56 39.93222 -104.86632 9963 ft 278 kts 272°
2026-05-06 23:56 39.93233 -104.89145 9962 ft 278 kts 272°
2026-05-06 23:57 39.93254 -104.91690 10004 ft 286 kts 273°
2026-05-06 23:57 39.93310 -104.94270 10824 ft 285 kts 274°
2026-05-06 23:57 39.93375 -104.96792 11763 ft 281 kts 275°
2026-05-06 23:57 39.93440 -104.99342 12554 ft 283 kts 275°
2026-05-06 23:58 39.93502 -105.01904 13323 ft 286 kts 275°
2026-05-06 23:58 39.93562 -105.04512 14054 ft 289 kts 275°
2026-05-06 23:58 39.93618 -105.07108 14798 ft 292 kts 275°
2026-05-06 23:58 39.93675 -105.09767 15444 ft 298 kts 276°
2026-05-06 23:59 39.93733 -105.12466 16122 ft 303 kts 277°
2026-05-06 23:59 39.93791 -105.15231 16846 ft 305 kts 278°
2026-05-06 23:59 39.93851 -105.18002 17427 ft 312 kts 278°
2026-05-06 23:59 39.93911 -105.20812 18109 ft 314 kts 278°
2026-05-07 00:00 39.94001 -105.23666 18671 ft 319 kts 281°
2026-05-07 00:00 39.94197 -105.26535 19297 ft 320 kts 284°
2026-05-07 00:00 39.94442 -105.29388 19996 ft 320 kts 284°
2026-05-07 00:00 39.94696 -105.32298 20531 ft 326 kts 284°
2026-05-07 00:01 39.94944 -105.35239 21060 ft 331 kts 284°
2026-05-07 00:01 39.95188 -105.38224 21626 ft 334 kts 284°
2026-05-07 00:01 39.95430 -105.41221 22031 ft 340 kts 284°
2026-05-07 00:01 39.95685 -105.44334 22104 ft 355 kts 284°
2026-05-07 00:02 39.95951 -105.47602 22121 ft 371 kts 284°
2026-05-07 00:02 39.96223 -105.51012 22123 ft 379 kts 283°
2026-05-07 00:02 39.96485 -105.54428 22127 ft 380 kts 283°
2026-05-07 00:02 39.96740 -105.57830 22129 ft 380 kts 283°
2026-05-07 00:03 39.96999 -105.61297 22118 ft 383 kts 283°
2026-05-07 00:03 39.97253 -105.64716 22118 ft 381 kts 283°
2026-05-07 00:03 39.97490 -105.68130 22118 ft 374 kts 282°
2026-05-07 00:03 39.97681 -105.71455 22120 ft 366 kts 281°
2026-05-07 00:04 39.97857 -105.74788 22121 ft 366 kts 281°
2026-05-07 00:04 39.98032 -105.78065 22117 ft 363 kts 281°
2026-05-07 00:04 39.98206 -105.81333 22134 ft 363 kts 282°
2026-05-07 00:04 39.98385 -105.84634 22135 ft 366 kts 281°
2026-05-07 00:05 39.98563 -105.87910 22138 ft 360 kts 281°
2026-05-07 00:05 39.98733 -105.91129 22147 ft 346 kts 282°
2026-05-07 00:05 39.98891 -105.94181 22134 ft 340 kts 282°
2026-05-07 00:05 39.99060 -105.97281 21920 ft 346 kts 282°
2026-05-07 00:06 39.99232 -106.00400 21510 ft 345 kts 282°
2026-05-07 00:06 39.99400 -106.03535 21064 ft 343 kts 282°
2026-05-07 00:06 39.99563 -106.06572 20637 ft 340 kts 282°
2026-05-07 00:06 39.99728 -106.09656 20201 ft 338 kts 282°
2026-05-07 00:07 39.99896 -106.12730 20030 ft 343 kts 282°
2026-05-07 00:07 40.00053 -106.15771 19909 ft 330 kts 282°
2026-05-07 00:07 40.00194 -106.18710 19365 ft 327 kts 282°
2026-05-07 00:07 40.00343 -106.21661 18744 ft 326 kts 282°
2026-05-07 00:08 40.00490 -106.24575 18149 ft 324 kts 282°
2026-05-07 00:08 40.00640 -106.27509 17663 ft 318 kts 282°
2026-05-07 00:08 40.00784 -106.30351 17164 ft 314 kts 281°
2026-05-07 00:08 40.00928 -106.33153 16618 ft 311 kts 280°
2026-05-07 00:09 40.01065 -106.35903 16370 ft 298 kts 279°
2026-05-07 00:09 40.01191 -106.38541 16153 ft 286 kts 279°
2026-05-07 00:09 40.01254 -106.41076 15941 ft 277 kts 274°
2026-05-07 00:09 40.00894 -106.43515 15662 ft 280 kts 251°
2026-05-07 00:10 39.99669 -106.45509 15492 ft 281 kts 224°
2026-05-07 00:10 39.98101 -106.46986 15490 ft 281 kts 219°
2026-05-07 00:10 39.96476 -106.48428 15488 ft 282 kts 220°
2026-05-07 00:10 39.94892 -106.49900 15492 ft 282 kts 221°
2026-05-07 00:11 39.93322 -106.51426 15489 ft 282 kts 222°
2026-05-07 00:11 39.91756 -106.52977 15191 ft 284 kts 222°
2026-05-07 00:11 39.90197 -106.54519 14708 ft 282 kts 222°
2026-05-07 00:11 39.88631 -106.56062 14142 ft 281 kts 221°
2026-05-07 00:12 39.87088 -106.57581 13618 ft 278 kts 221°
2026-05-07 00:12 39.85561 -106.59081 13352 ft 265 kts 221°
2026-05-07 00:12 39.84145 -106.60468 13204 ft 249 kts 220°
2026-05-07 00:12 39.82742 -106.61682 13053 ft 238 kts 212°
2026-05-07 00:13 39.81152 -106.62274 12918 ft 241 kts 189°
2026-05-07 00:13 39.79490 -106.62433 12907 ft 234 kts 186°
2026-05-07 00:13 39.77872 -106.62589 12866 ft 232 kts 189°
2026-05-07 00:13 39.76257 -106.62823 12611 ft 233 kts 190°
2026-05-07 00:14 39.74652 -106.63090 12193 ft 237 kts 190°
2026-05-07 00:14 39.72985 -106.63364 11686 ft 243 kts 190°
2026-05-07 00:14 39.71306 -106.63641 11219 ft 245 kts 191°
2026-05-07 00:14 39.69679 -106.64194 10747 ft 243 kts 208°
2026-05-07 00:15 39.68370 -106.65524 10193 ft 238 kts 231°
2026-05-07 00:15 39.67376 -106.67178 10014 ft 222 kts 238°
2026-05-07 00:15 39.66755 -106.68890 10032 ft 203 kts 258°
2026-05-07 00:15 39.66529 -106.70700 10057 ft 204 kts 266°
2026-05-07 00:16 39.66367 -106.72541 9895 ft 208 kts 266°
2026-05-07 00:16 39.66178 -106.74438 9450 ft 215 kts 264°
2026-05-07 00:16 39.65960 -106.76337 9085 ft 211 kts 263°
2026-05-07 00:16 39.65743 -106.78163 8776 ft 201 kts 263°
2026-05-07 00:17 39.65545 -106.79954 8460 ft 201 kts 263°
2026-05-07 00:17 39.65356 -106.81733 8147 ft 200 kts 263°
2026-05-07 00:17 39.65170 -106.83490 7830 ft 190 kts 263°
2026-05-07 00:17 39.64994 -106.85111 7571 ft 173 kts 262°
2026-05-07 00:18 39.64830 -106.86597 7331 ft 162 kts 262°
2026-05-07 00:18 39.64677 -106.88017 7075 ft 158 kts 263°
2026-05-07 00:18 39.64521 -106.89423 6741 ft 154 kts 262°
2026-05-07 00:18 39.64365 -106.90773 6581 ft 146 kts 262°
2026-05-07 00:19 39.64254 -106.91817 6572 ft 73 kts 261°
2026-05-07 00:19 39.64196 -106.92261 6572 ft 26 kts 234°
2026-05-07 00:19 39.64105 -106.92245 6572 ft 11 kts 118°
2026-05-07 00:19 39.64106 -106.92153 6572 ft 9 kts 82°
2026-05-07 00:20 39.64114 -106.92072 6572 ft 9 kts 83°
2026-05-07 00:20 39.64129 -106.91930 6572 ft 21 kts 81°
2026-05-07 00:20 39.64150 -106.91747 6572 ft 19 kts 82°
2026-05-07 00:20 39.64145 -106.91585 6572 ft 16 kts 129°
2026-05-07 00:21 39.64083 -106.91496 6572 ft 10 kts 158°
2026-05-07 00:21 39.64062 -106.91489 6572 ft 0 kts 171°
2026-05-07 00:24 39.64065 -106.91487 6572 ft 0 kts 171°
2026-05-07 00:24 39.64066 -106.91487 6572 ft 0 kts 171°